Previsão horária em Ploschad

Hoje, 25 Fevereiro, Quinta-feira

Tempo Temperatura Precipitação Vento Pressão Humidade
00:00 -11°C° 1.3 mm 4 m/s 751 mmHg 95%
01:00 -10°C° 1.3 mm 4 m/s 750 mmHg 95%
02:00 -9°C° 0 mm 4 m/s 748 mmHg 94%
03:00 -7°C° 0.6 mm 4 m/s 747 mmHg 95%
04:00 -4°C° 0.6 mm 4 m/s 746 mmHg 96%
05:00 -2°C° 0.6 mm 4 m/s 745 mmHg 97%
06:00 -1°C° 0 mm 4 m/s 744 mmHg 98%
07:00 0°C° 0 mm 4 m/s 744 mmHg 99%
08:00 0°C° 0 mm 4 m/s 744 mmHg 99%
09:00 0°C° 0 mm 4 m/s 744 mmHg 99%
10:00 0°C° 0 mm 4 m/s 744 mmHg 99%
11:00 0°C° 0 mm 4 m/s 744 mmHg 99%
12:00 0°C° 0 mm 4 m/s 745 mmHg 99%
13:00 +1°C° 0 mm 3 m/s 745 mmHg 99%
14:00 +1°C° 0 mm 3 m/s 745 mmHg 99%
15:00 +1°C° 0 mm 3 m/s 745 mmHg 99%
16:00 0°C° 0 mm 3 m/s 745 mmHg 99%
17:00 +1°C° 0 mm 2 m/s 745 mmHg 98%
18:00 +1°C° 0.1 mm 2 m/s 745 mmHg 98%
19:00 +1°C° 0.1 mm 2 m/s 745 mmHg 99%
20:00 +1°C° 0.1 mm 2 m/s 745 mmHg 99%
21:00 +1°C° 0.4 mm 2 m/s 744 mmHg 99%
22:00 +1°C° 0.4 mm 2 m/s 744 mmHg 99%
23:00 +1°C° 0.4 mm 3 m/s 744 mmHg 99%

Amanhã, 26 Fevereiro, Sexta-feira

Tempo Temperatura Precipitação Vento Pressão Humidade
00:00 +1°C° 0.5 mm 3 m/s 743 mmHg 99%
01:00 +1°C° 0.5 mm 3 m/s 743 mmHg 99%
02:00 +1°C° 0.5 mm 3 m/s 743 mmHg 99%
03:00 +1°C° 0.4 mm 3 m/s 742 mmHg 99%
04:00 +1°C° 0.4 mm 3 m/s 741 mmHg 99%
05:00 0°C° 0.4 mm 4 m/s 740 mmHg 99%
06:00 0°C° 0.2 mm 4 m/s 739 mmHg 99%
07:00 0°C° 0.2 mm 4 m/s 739 mmHg 99%
08:00 0°C° 0.2 mm 4 m/s 738 mmHg 99%
09:00 0°C° 0.5 mm 5 m/s 737 mmHg 99%
10:00 +1°C° 0.5 mm 5 m/s 737 mmHg 99%
11:00 +1°C° 0.5 mm 5 m/s 736 mmHg 99%
12:00 0°C° 0 mm 5 m/s 736 mmHg 96%
13:00 -1°C° 0 mm 6 m/s 736 mmHg 93%
14:00 -1°C° 0 mm 6 m/s 735 mmHg 90%
15:00 -1°C° 0.1 mm 6 m/s 735 mmHg 92%
16:00 -2°C° 0.1 mm 7 m/s 735 mmHg 94%
17:00 -2°C° 0.1 mm 7 m/s 735 mmHg 96%
18:00 -2°C° 0.1 mm 7 m/s 735 mmHg 95%
19:00 -2°C° 0.1 mm 7 m/s 735 mmHg 94%
20:00 -2°C° 0.1 mm 7 m/s 735 mmHg 93%
21:00 -2°C° 0 mm 7 m/s 736 mmHg 94%
22:00 -2°C° 0 mm 7 m/s 736 mmHg 94%
23:00 -2°C° 0 mm 6 m/s 736 mmHg 95%

Depois de amanhã, 27 Fevereiro, Sábado

Tempo Temperatura Precipitação Vento Pressão Humidade
00:00 -2°C° 0.3 mm 6 m/s 736 mmHg 96%
01:00 -3°C° 0.3 mm 6 m/s 737 mmHg 96%
02:00 -3°C° 0.3 mm 6 m/s 737 mmHg 96%
03:00 -5°C° 0.3 mm 5 m/s 738 mmHg 95%
04:00 -6°C° 0.3 mm 5 m/s 738 mmHg 94%
05:00 -7°C° 0.3 mm 4 m/s 738 mmHg 92%
06:00 -8°C° 0 mm 4 m/s 739 mmHg 92%
07:00 -10°C° 0 mm 4 m/s 740 mmHg 92%
08:00 -10°C° 0 mm 3 m/s 740 mmHg 91%
09:00 -9°C° 0 mm 3 m/s 741 mmHg 91%
10:00 -9°C° 0 mm 3 m/s 742 mmHg 90%
11:00 -9°C° 0 mm 3 m/s 742 mmHg 89%
12:00 -8°C° 0 mm 3 m/s 743 mmHg 89%
13:00 -7°C° 0 mm 3 m/s 743 mmHg 89%
14:00 -7°C° 0 mm 3 m/s 744 mmHg 89%
15:00 -7°C° 0 mm 3 m/s 744 mmHg 90%
16:00 -7°C° 0 mm 3 m/s 745 mmHg 92%
17:00 -7°C° 0 mm 2 m/s 745 mmHg 94%
18:00 -7°C° 0.1 mm 2 m/s 746 mmHg 95%
19:00 -7°C° 0.1 mm 2 m/s 746 mmHg 95%
20:00 -7°C° 0.1 mm 2 m/s 747 mmHg 96%
21:00 -7°C° 0.1 mm 2 m/s 747 mmHg 96%
22:00 -7°C° 0.1 mm 2 m/s 748 mmHg 96%
23:00 -7°C° 0.1 mm 2 m/s 748 mmHg 96%

28 Fevereiro, Domingo

Tempo Temperatura Precipitação Vento Pressão Humidade
00:00 -7°C° 0 mm 2 m/s 748 mmHg 96%
01:00 -8°C° 0 mm 2 m/s 749 mmHg 96%
02:00 -8°C° 0 mm 2 m/s 749 mmHg 96%
03:00 -7°C° 0 mm 2 m/s 749 mmHg 96%
04:00 -7°C° 0 mm 2 m/s 749 mmHg 95%
05:00 -7°C° 0 mm 3 m/s 749 mmHg 95%
06:00 -7°C° 0 mm 3 m/s 750 mmHg 95%
07:00 -8°C° 0 mm 3 m/s 750 mmHg 94%
08:00 -8°C° 0 mm 3 m/s 751 mmHg 94%
09:00 -7°C° 0 mm 3 m/s 751 mmHg 93%
10:00 -6°C° 0 mm 3 m/s 751 mmHg 92%
11:00 -5°C° 0 mm 3 m/s 751 mmHg 91%
12:00 -5°C° 0 mm 3 m/s 752 mmHg 91%
13:00 -5°C° 0 mm 3 m/s 752 mmHg 90%
14:00 -4°C° 0 mm 3 m/s 752 mmHg 89%
15:00 -4°C° 0 mm 3 m/s 753 mmHg 89%
16:00 -3°C° 0 mm 2 m/s 753 mmHg 89%
17:00 -4°C° 0 mm 2 m/s 753 mmHg 89%
18:00 -4°C° 0 mm 2 m/s 753 mmHg 90%
19:00 -5°C° 0 mm 2 m/s 754 mmHg 92%
20:00 -5°C° 0 mm 2 m/s 754 mmHg 93%
21:00 -6°C° 0 mm 2 m/s 754 mmHg 93%
22:00 -7°C° 0 mm 2 m/s 754 mmHg 94%
23:00 -8°C° 0 mm 2 m/s 754 mmHg 94%

1 Março, Segunda-feira

Tempo Temperatura Precipitação Vento Pressão Humidade
00:00 -7°C° 0 mm 2 m/s 754 mmHg 95%
01:00 -7°C° 0 mm 2 m/s 754 mmHg 95%
02:00 -7°C° 0 mm 2 m/s 754 mmHg 96%
03:00 -6°C° 0 mm 2 m/s 754 mmHg 96%
04:00 -6°C° 0 mm 3 m/s 754 mmHg 95%
05:00 -4°C° 0 mm 3 m/s 754 mmHg 95%
06:00 -4°C° 0 mm 3 m/s 753 mmHg 94%
07:00 -3°C° 0 mm 4 m/s 753 mmHg 94%
08:00 -2°C° 0 mm 4 m/s 752 mmHg 93%
09:00 -2°C° 0 mm 4 m/s 752 mmHg 93%
10:00 -2°C° 0 mm 5 m/s 752 mmHg 93%
11:00 -1°C° 0 mm 5 m/s 751 mmHg 93%
12:00 -1°C° 0 mm 5 m/s 751 mmHg 93%
13:00 -1°C° 0 mm 5 m/s 750 mmHg 93%
14:00 -1°C° 0 mm 5 m/s 750 mmHg 94%
15:00 -1°C° 0 mm 5 m/s 749 mmHg 93%
16:00 -1°C° 0 mm 5 m/s 749 mmHg 92%
17:00 -1°C° 0 mm 5 m/s 748 mmHg 91%
18:00 -1°C° 0 mm 5 m/s 748 mmHg 91%
19:00 0°C° 0 mm 5 m/s 747 mmHg 91%
20:00 0°C° 0 mm 5 m/s 747 mmHg 91%
21:00 -1°C° 0 mm 5 m/s 747 mmHg 91%
22:00 -1°C° 0 mm 5 m/s 746 mmHg 92%
23:00 -1°C° 0 mm 5 m/s 746 mmHg 92%

2 Março, Terça-feira

Tempo Temperatura Precipitação Vento Pressão Humidade
00:00 -1°C° 0 mm 5 m/s 746 mmHg 91%
01:00 -1°C° 0 mm 5 m/s 745 mmHg 90%
02:00 -1°C° 0 mm 5 m/s 745 mmHg 89%
03:00 -1°C° 0 mm 5 m/s 745 mmHg 88%
04:00 -1°C° 0 mm 5 m/s 745 mmHg 87%
05:00 -1°C° 0 mm 5 m/s 745 mmHg 86%
06:00 -1°C° 0 mm 5 m/s 745 mmHg 87%
07:00 -2°C° 0 mm 5 m/s 745 mmHg 88%
08:00 -2°C° 0 mm 5 m/s 745 mmHg 88%
09:00 -2°C° 0 mm 5 m/s 745 mmHg 88%
10:00 -2°C° 0 mm 5 m/s 745 mmHg 88%
11:00 -2°C° 0 mm 5 m/s 745 mmHg 88%
12:00 -2°C° 0 mm 5 m/s 745 mmHg 87%
13:00 -1°C° 0 mm 5 m/s 745 mmHg 87%
14:00 -1°C° 0 mm 5 m/s 745 mmHg 86%
15:00 -2°C° 0 mm 5 m/s 745 mmHg 86%
16:00 -2°C° 0 mm 5 m/s 745 mmHg 86%
17:00 -2°C° 0 mm 5 m/s 745 mmHg 85%
18:00 -2°C° 0 mm 5 m/s 745 mmHg 86%
19:00 -2°C° 0 mm 5 m/s 745 mmHg 86%
20:00 -2°C° 0 mm 4 m/s 745 mmHg 87%
21:00 -3°C° 0 mm 4 m/s 745 mmHg 88%
22:00 -4°C° 0 mm 5 m/s 745 mmHg 89%
23:00 -4°C° 0 mm 5 m/s 745 mmHg 90%
Mostrar mais

Necessitamos do seu Consentimento

A Meteoprog e os seus Fornecedores de Serviços podem armazenar e aceder a dados pessoais como cookies, identificadores do dispositivo ou outras tecnologias semelhantes existentes no seu dispositivo e processar estes dados para personalizar conteúdos e anúncios, assim como funcionalidades nas redes sociais e análise de tráfego.

  • Armazenar e/ou aceder a informações no seu dispositivo

    Os cookies, identificadores do dispositivo ou outras informações podem ser armazenados ou acedidos no seu dispositivo, para os fins acima indicados.

  • Anúncios e conteúdos personalizados, medição de anúncios e conteúdos, dados sobre o público-alvo e desenvolvimento de produtos

    Os anúncios e os conteúdos podem ser personalizados com base num perfil. Podem ser adicionados dados adicionais para uma maior personalização dos anúncios e dos conteúdos. A eficácia dos anúncios e dos conteúdos pode ser medida. Podem ser obtidas informações sobre o público que visualizou os anúncios e os conteúdos. Estes dados podem ser usados para desenvolver ou melhorar sistemas, softwares ou a experiência do utilizador.

Ao clicar em "Eu concordo”, permitirá o uso de cookies, identificadores do dispositivo e web beacons mencionados ou outras tecnologias semelhantes. As configurações do navegador do seu dispositivo podem ser alteradas.

Para certos fins, podem ser invocados interesses legítimos ao invés de consentimento. Pode ler mais informação sobre este assunto na nossa Política de Privacidade e Cookies.